Location: ????????
(55.5667°N, 37.5833°E)
Time: 15:30:55
(UTC+00:00)

USA 238 DEB - Pass Details

Date: 14 April 2026
Orbit: 883 x 1328 km, 63.4° (Epoch: 10 January)

Event Time Altitude Azimuth Distance (km) Brightness Sun altitude
Rises 17:16:59 0° 307° (NW) 3,861 8.9 -6.5°
Reaches altitude 10° 17:19:31 10° 308° (NW) 2,964 7.7 -6.8°
Maximum altitude 17:26:41 86° 38° (NE) 1,200 4.0 -7.7°
Drops below altitude 10° 17:34:37 10° 128° (SE) 3,262 5.6 -8.7°
Enters shadow 17:34:38 10° 128° (SE) 3,266 5.6 -8.7°
